FW0954 Weather Reports


time (UTC)temp
F
wind
direction
speed
knots
gust
knots
rain 1hr
in
rain 24hr
in
rain mn
in
humidity
%
barometer
mb
20260903191502 87 177 3.5 9.6 0.00 0.00 0.00 72 1013.4
20260903191002 86 171 3.5 9.6 0.00 0.00 0.00 72 1013.5
20260903190502 86 172 4.3 9.6 0.00 0.00 0.00 73 1013.6
20260903190002 86 186 4.3 10.4 0.00 0.00 0.00 73 1013.8
20260903185003 87 166 4.3 9.6 0.00 0.00 0.00 72 1013.8
20260903184502 87 167 4.3 9.6 0.00 0.00 0.00 72 1013.7
20260903184002 87 166 4.3 9.6 0.00 0.00 0.00 72 1013.8
20260903183501 87 172 4.3 10.4 0.00 0.00 0.00 73 1013.8
20260903183003 86 177 3.5 10.4 0.00 0.00 0.00 73 1013.8
20260903182501 86 179 3.5 9.6 0.00 0.00 0.00 75 1014.0
20260903182003 86 179 3.5 9.6 0.00 0.00 0.00 74 1013.9
20260903181503 85 177 4.3 10.4 0.00 0.00 0.00 75 1014.0
20260903181002 85 182 5.2 12.2 0.00 0.00 0.00 75 1014.0
20260903180503 85 184 4.3 12.2 0.00 0.00 0.00 76 1014.1
20260903180003 84 186 4.3 10.4 0.00 0.00 0.00 77 1014.2
20260903175503 84 186 5.2 10.4 0.00 0.00 0.00 78 1014.2
20260903175002 84 178 4.3 12.2 0.00 0.00 0.00 78 1014.3
20260903174502 84 171 4.3 12.2 0.00 0.00 0.00 78 1014.3
20260903174002 84 175 3.5 9.6 0.00 0.00 0.00 79 1014.3
20260903173502 83 176 3.5 9.6 0.00 0.00 0.00 79 1014.4
20260903172502 83 183 5.2 13.0 0.00 0.00 0.00 80 1014.6
20260903172003 82 182 5.2 13.9 0.00 0.00 0.00 81 1014.5
20260903171002 82 184 5.2 13.0 0.00 0.00 0.00 82 1014.5
20260903170003 82 179 4.3 12.2 0.00 0.00 0.00 83 1014.6
20260903165003 82 169 3.5 10.4 0.00 0.00 0.00 83 1014.5
20260903164503 82 164 3.5 11.3 0.00 0.00 0.00 83 1014.4
20260903164002 82 160 2.6 11.3 0.00 0.00 0.00 83 1014.4
20260903163002 82 170 3.5 10.4 0.00 0.00 0.00 84 1014.4
20260903162502 82 171 3.5 10.4 0.00 0.00 0.00 83 1014.4
20260903161503 82 177 2.6 7.0 0.00 0.00 0.00 83 1014.4
20260903161002 82 174 2.6 6.1 0.00 0.00 0.00 84 1014.3
20260903160502 82 176 2.6 7.0 0.00 0.00 0.00 84 1014.3
20260903160002 82 177 3.5 7.0 0.00 0.00 0.00 84 1014.2
20260903155502 82 174 2.6 7.8 0.00 0.00 0.00 84 1014.3
20260903155002 82 178 1.7 7.8 0.00 0.00 0.00 85 1014.2
20260903154502 82 175 2.6 7.8 0.00 0.00 0.00 86 1014.2
20260903154002 81 177 2.6 7.8 0.00 0.00 0.00 86 1014.1
20260903153002 81 177 3.5 8.7 0.00 0.00 0.00 87 1014.1
20260903152002 81 170 2.6 7.8 0.00 0.00 0.00 88 1014.2
20260903151002 80 169 2.6 7.8 0.00 0.00 0.00 88 1014.2
20260903150503 80 162 2.6 6.1 0.00 0.00 0.00 89 1014.2
20260903150002 80 161 1.7 5.2 0.00 0.00 0.00 89 1014.2
20260903145502 80 148 0.9 5.2 0.00 0.00 0.00 90 1014.2
20260903145003 80 150 1.7 5.2 0.00 0.00 0.00 90 1014.1
20260903144503 80 161 1.7 5.2 0.00 0.00 0.00 90 1014.2
20260903143502 80 169 1.7 7.8 0.00 0.00 0.00 90 1014.1
20260903143002 80 162 0.9 7.8 0.00 0.00 0.00 90 1014.1
20260903142503 80 159 1.7 7.0 0.00 0.00 0.00 90 1014.3
20260903141502 80 161 1.7 4.3 0.00 0.00 0.00 91 1014.2
20260903141002 80 167 1.7 6.1 0.00 0.00 0.00 92 1014.3
20260903140503 80 170 1.7 6.1 0.00 0.00 0.00 92 1014.3
20260903140003 79 172 0.9 4.3 0.00 0.00 0.00 93 1014.2
20260903135503 79 171 0.9 4.3 0.00 0.00 0.00 93 1014.3
20260903134503 79 166 1.7 5.2 0.00 0.00 0.00 93 1014.3
20260903133503 79 148 1.7 7.8 0.00 0.00 0.00 93 1014.2
20260903132502 79 159 1.7 7.0 0.00 0.00 0.00 93 1014.2
20260903132003 78 155 1.7 5.2 0.00 0.00 0.00 93 1014.2
20260903131002 78 132 0.9 3.5 0.00 0.00 0.00 93 1014.2
20260903130503 78 108 0.9 2.6 0.00 0.00 0.00 93 1014.1
20260903130003 78 185 0.9 3.5 0.00 0.00 0.00 93 1014.0
20260903125502 78 159 0.9 3.5 0.00 0.00 0.00 93 1013.8
20260903124502 78 161 1.7 5.2 0.00 0.00 0.00 93 1013.9
20260903124003 78 162 1.7 5.2 0.00 0.00 0.00 93 1013.8
20260903123503 78 160 0.9 4.3 0.00 0.00 0.00 94 1013.9
20260903123003 78 152 0.9 3.5 0.00 0.00 0.00 94 1014.0
20260903122002 77 166 0.9 3.5 0.00 0.00 0.00 94 1013.8
20260903121502 77 172 0.9 4.3 0.00 0.00 0.00 94 1013.8
20260903121003 77 164 0.9 5.2 0.00 0.00 0.00 94 1013.7
20260903120503 77 160 1.7 5.2 0.00 0.00 0.00 94 1013.7
20260903120002 77 160 1.7 4.3 0.00 0.00 0.00 94 1013.7
20260903115503 77 162 0.9 6.1 0.00 0.00 0.00 94 1013.7
20260903115003 77 167 0.9 6.1 0.00 0.00 0.00 94 1013.6
20260903114502 77 167 1.7 5.2 0.00 0.00 0.00 94 1013.5
20260903114003 77 172 0.9 3.5 0.00 0.00 0.00 94 1013.5
20260903112003 77 172 0.9 3.5 0.00 0.00 0.00 94 1013.5
20260903111503 77 169 0.0 1.7 0.00 0.00 0.00 94 1013.5
20260903111002 77 167 0.0 2.6 0.00 0.00 0.00 94 1013.5
20260903110503 77 161 0.0 2.6 0.00 0.00 0.00 94 1013.5
20260903110002 77 150 0.0 1.7 0.00 0.00 0.00 94 1013.5
20260903105003 77 169 0.0 0.9 0.00 0.00 0.00 94 1013.4
20260903104003 77 165 0.9 3.5 0.00 0.00 0.00 94 1013.4
20260903103503 77 166 0.9 3.5 0.00 0.00 0.00 94 1013.4
20260903103002 77 164 0.9 3.5 0.00 0.00 0.00 94 1013.3
20260903102503 76 163 0.0 2.6 0.00 0.00 0.00 94 1013.3
20260903102002 76 169 0.0 1.7 0.00 0.00 0.00 94 1013.3
20260903101003 76 168 0.0 2.6 0.00 0.00 0.00 94 1013.2
20260903100503 76 169 0.0 1.7 0.00 0.00 0.00 94 1013.2
20260903095003 76 173 0.9 4.3 0.00 0.00 0.00 93 1013.4
20260903094003 76 163 0.9 3.5 0.00 0.00 0.00 93 1013.3
20260903093003 77 165 0.9 4.3 0.00 0.00 0.00 93 1013.3
20260903092503 77 165 0.9 4.3 0.00 0.00 0.00 92 1013.5
20260903092003 77 161 0.9 3.5 0.00 0.00 0.00 92 1013.4
20260903090503 77 169 0.9 4.3 0.00 0.00 0.00 91 1013.3
20260903090004 77 184 0.9 5.2 0.00 0.00 0.00 91 1013.2
20260903085503 76 172 0.9 5.2 0.00 0.00 0.00 91 1013.1
20260903085003 76 205 1.7 4.3 0.00 0.00 0.00 92 1013.1
20260903084503 76 275 1.7 5.2 0.00 0.00 0.00 92 1012.9
20260903084003 76 278 1.7 7.0 0.00 0.00 0.00 92 1012.7
20260903083502 76 268 1.7 7.0 0.00 0.00 0.00 92 1012.7
20260903082003 77 167 0.9 4.3 0.00 0.00 0.00 93 1013.1
20260903080003 78 169 0.0 2.6 0.00 0.00 0.00 92 1012.9
20260903075503 78 166 0.0 1.7 0.00 0.00 0.00 92 1012.9
20260903074503 78 184 0.9 3.5 0.00 0.00 0.00 91 1012.7
20260903074003 78 184 0.9 3.5 0.00 0.00 0.00 91 1012.7
20260903073503 78 162 0.0 3.5 0.00 0.00 0.00 91 1012.7
20260903073003 78 117 0.0 2.6 0.00 0.00 0.00 91 1012.7
20260903072503 78 99 0.0 2.6 0.00 0.00 0.00 90 1012.8
20260903072003 78 98 0.0 1.7 0.00 0.00 0.00 90 1012.7
20260903071503 78 99 0.0 1.7 0.00 0.00 0.00 89 1012.9
20260903071003 79 98 0.0 1.7 0.00 0.00 0.00 89 1012.9
20260903070503 79 90 0.0 1.7 0.00 0.00 0.00 88 1013.0
20260903070004 79 96 0.9 5.2 0.00 0.00 0.00 88 1013.0
20260903065503 80 99 0.9 5.2 0.00 0.00 0.00 87 1012.9
20260903065003 80 104 0.9 5.2 0.00 0.00 0.00 86 1012.9
20260903064503 80 101 0.9 3.5 0.00 0.00 0.00 85 1012.9
20260903064003 80 97 0.0 2.6 0.00 0.00 0.00 85 1013.0
20260903062504 80 114 0.0 0.9 0.00 0.00 0.00 85 1012.8
20260903062003 80 119 0.0 2.6 0.00 0.00 0.00 85 1012.7
20260903061503 80 123 0.0 2.6 0.00 0.00 0.00 85 1012.8
20260903061003 80 130 0.0 0.9 0.00 0.00 0.00 85 1012.9
20260903060503 80 86 0.0 2.6 0.00 0.00 0.00 85 1012.9
20260903060004 80 105 0.0 2.6 0.00 0.00 0.00 85 1013.1
20260903055503 80 111 0.0 3.5 0.00 0.00 0.00 85 1013.1
20260903055004 80 85 0.0 3.5 0.00 0.00 0.00 84 1013.2
20260903054504 80 88 0.9 2.6 0.00 0.00 0.00 84 1013.4
20260903054003 80 101 0.0 2.6 0.00 0.00 0.00 83 1013.4
20260903053503 80 121 0.0 3.5 0.00 0.00 0.00 83 1013.5
20260903053003 80 106 0.9 3.5 0.00 0.00 0.00 83 1013.5
20260903052504 80 89 0.9 4.3 0.00 0.00 0.00 83 1013.5
20260903052003 80 83 1.7 6.1 0.00 0.00 0.00 83 1013.5
20260903051504 80 87 0.9 6.1 0.00 0.00 0.00 82 1013.6
20260903051003 81 85 0.9 6.1 0.00 0.00 0.00 82 1013.5
20260903050503 81 71 0.9 6.1 0.00 0.00 0.00 81 1013.5
20260903050004 81 69 0.9 7.8 0.00 0.00 0.00 80 1013.7
20260903045503 81 85 0.0 7.8 0.00 0.00 0.00 80 1013.8
20260903045004 81 89 0.9 5.2 0.00 0.00 0.00 80 1013.9
20260903044001 81 83 0.9 3.5 0.00 0.00 0.00 79 1013.8
20260903043501 81 88 0.9 4.3 0.00 0.00 0.00 79 1013.7
20260903043001 82 90 0.9 4.3 0.00 0.00 0.00 78 1013.7
20260903041501 82 83 1.7 7.8 0.00 0.00 0.00 76 1013.6
20260903040001 83 81 0.9 6.1 0.00 0.00 0.00 76 1013.8
20260903035501 83 82 0.9 6.1 0.00 0.00 0.00 76 1013.7
20260903035002 83 91 0.9 6.1 0.00 0.00 0.00 75 1013.8
20260903034501 83 111 0.9 5.2 0.00 0.00 0.00 75 1013.7
20260903034001 83 114 0.9 3.5 0.00 0.00 0.00 75 1013.7
20260903033501 83 94 0.9 5.2 0.00 0.00 0.00 74 1013.7
20260903033002 84 90 0.9 5.2 0.00 0.00 0.00 74 1013.5
20260903032501 84 97 0.9 5.2 0.00 0.00 0.00 74 1013.6
20260903032001 84 90 0.9 5.2 0.00 0.00 0.00 74 1013.6
20260903031501 84 83 0.9 5.2 0.00 0.00 0.00 73 1013.5
20260903031002 84 85 0.9 5.2 0.00 0.00 0.00 73 1013.4
20260903030502 84 90 0.9 4.3 0.00 0.00 0.00 72 1013.5
20260903030001 85 90 0.9 4.3 0.00 0.00 0.00 72 1013.5
20260903025501 85 90 1.7 4.3 0.00 0.00 0.00 71 1013.5
20260903025001 85 87 0.9 5.2 0.00 0.00 0.00 71 1013.5
20260903024502 85 90 1.7 5.2 0.00 0.00 0.00 70 1013.5
20260903023502 86 103 1.7 7.8 0.00 0.00 0.00 69 1013.4
20260903023001 86 104 1.7 8.7 0.00 0.00 0.00 69 1013.3
20260903022501 86 103 2.6 8.7 0.00 0.00 0.00 68 1013.4
20260903022001 86 109 1.7 7.0 0.00 0.00 0.00 68 1013.4
20260903021501 87 115 1.7 7.0 0.00 0.00 0.00 68 1013.2
20260903021001 87 109 1.7 7.0 0.00 0.00 0.00 68 1013.2
20260903020501 87 110 1.7 5.2 0.00 0.00 0.00 67 1013.1
20260903020001 88 110 1.7 7.8 0.00 0.00 0.00 67 1013.0
20260903015502 88 107 1.7 8.7 0.00 0.00 0.00 66 1012.9
20260903015002 88 103 1.7 8.7 0.00 0.00 0.00 65 1012.9
20260903014501 89 100 0.9 4.3 0.00 0.00 0.00 65 1012.8
20260903014001 89 116 0.9 4.3 0.00 0.00 0.00 66 1012.5
20260903013502 89 117 0.9 4.3 0.00 0.00 0.00 65 1012.4
20260903013002 90 96 0.9 4.3 0.00 0.00 0.00 64 1012.3
20260903012502 90 93 0.9 7.0 0.00 0.00 0.00 63 1012.3
20260903012002 90 93 0.9 7.0 0.00 0.00 0.00 63 1012.1
20260903011002 91 81 0.9 5.2 0.00 0.00 0.00 60 1012.0
20260903010502 91 85 0.9 3.5 0.00 0.00 0.00 59 1012.0
20260903010002 92 97 0.9 6.1 0.00 0.00 0.00 58 1011.9
20260903005002 92 90 0.9 6.1 0.00 0.00 0.00 57 1011.8
20260903004502 92 85 0.9 4.3 0.00 0.00 0.00 57 1011.9
20260903004002 92 79 0.9 3.5 0.00 0.00 0.00 58 1011.9
20260903003502 92 90 0.0 2.6 0.00 0.00 0.00 58 1011.8
20260903003002 93 92 0.9 5.2 0.00 0.00 0.00 58 1011.7
20260903002502 93 94 0.9 5.2 0.00 0.00 0.00 58 1011.7
20260903002002 93 91 0.9 2.6 0.00 0.00 0.00 58 1011.6
20260903001001 93 90 0.0 2.6 0.00 0.00 0.00 58 1011.5
20260903000002 94 91 0.0 2.6 0.00 0.00 0.00 57 1011.6
20260902235501 94 93 0.0 3.5 0.00 0.00 0.00 56 1011.5
20260902234002 94 84 0.9 4.3 0.00 0.00 0.00 56 1011.5
20260902233502 95 91 0.9 5.2 0.00 0.00 0.00 56 1011.5
20260902232501 95 88 0.9 3.5 0.00 0.00 0.00 55 1011.4
20260902232002 95 96 0.9 3.5 0.00 0.00 0.00 55 1011.5
20260902231502 95 101 0.9 3.5 0.00 0.00 0.00 55 1011.5
20260902231002 96 99 0.9 4.3 0.00 0.00 0.00 54 1011.5
20260902230502 96 100 0.9 4.3 0.00 0.00 0.00 55 1011.6
20260902230002 96 94 0.9 3.5 0.00 0.00 0.00 55 1011.5
20260902225501 96 92 0.0 2.6 0.00 0.00 0.00 54 1011.4
20260902225001 96 90 0.0 3.5 0.00 0.00 0.00 52 1011.4
20260902224501 97 87 0.9 3.5 0.00 0.00 0.00 52 1011.4
20260902224002 97 84 0.9 4.3 0.00 0.00 0.00 53 1011.3
20260902223502 98 81 0.9 4.3 0.00 0.00 0.00 52 1011.2
20260902223002 99 82 0.9 4.3 0.00 0.00 0.00 52 1011.3
20260902222002 102 92 0.0 3.5 0.00 0.00 0.00 48 1011.2
20260902221502 102 108 0.9 5.2 0.00 0.00 0.00 47 1011.1
20260902221002 102 105 0.9 6.1 0.00 0.00 0.00 47 1011.1
20260902220502 101 95 0.9 6.1 0.00 0.00 0.00 46 1011.3
20260902220002 102 104 0.9 5.2 0.00 0.00 0.00 47 1011.2
20260902215502 101 112 0.9 2.6 0.00 0.00 0.00 48 1011.2
20260902215001 102 118 0.0 2.6 0.00 0.00 0.00 47 1011.3
20260902214502 102 118 0.0 2.6 0.00 0.00 0.00 46 1011.3
20260902214001 102 97 0.9 2.6 0.00 0.00 0.00 46 1011.5
20260902213502 102 91 0.9 3.5 0.00 0.00 0.00 47 1011.5
20260902213002 102 103 0.9 3.5 0.00 0.00 0.00 47 1011.6
20260902212501 102 92 0.9 3.5 0.00 0.00 0.00 46 1011.6
20260902212002 102 89 0.9 4.3 0.00 0.00 0.00 47 1011.7
20260902211502 102 91 0.9 4.3 0.00 0.00 0.00 47 1011.7
20260902211002 102 84 0.0 3.5 0.00 0.00 0.00 48 1011.7
20260902210502 102 116 0.9 3.5 0.00 0.00 0.00 48 1011.8
20260902205502 102 105 0.9 3.5 0.00 0.00 0.00 47 1011.8
20260902205002 102 102 0.9 3.5 0.00 0.00 0.00 47 1011.8
20260902204002 102 110 0.9 5.2 0.00 0.00 0.00 48 1012.0
20260902203002 102 110 0.0 1.7 0.00 0.00 0.00 47 1012.2
20260902202503 101 53 0.0 0.9 0.00 0.00 0.00 47 1012.5
20260902202002 100 72 0.0 2.6 0.00 0.00 0.00 48 1012.4
20260902201502 100 94 0.9 3.5 0.00 0.00 0.00 48 1012.6
20260902201002 100 99 0.9 3.5 0.00 0.00 0.00 48 1012.6
20260902200502 100 103 0.9 4.3 0.00 0.00 0.00 47 1012.8
20260902200003 101 107 0.9 4.3 0.00 0.00 0.00 47 1013.0
20260902195502 101 128 0.9 4.3 0.00 0.00 0.00 47 1013.1
20260902195002 101 118 0.9 4.3 0.00 0.00 0.00 47 1013.1
20260902194001 102 144 0.0 2.6 0.00 0.00 0.00 47 1013.3
20260902193502 101 270 0.9 2.6 0.00 0.00 0.00 47 1013.3
20260902193002 100 49 0.9 3.5 0.00 0.00 0.00 49 1013.3